Location: NCO
(38.4404°N, 77.1340°W)
Time: 01:39:19
(UTC-04:00)

Envisat - Visible Passes

Search period start: 23 September 2017 00:00
Search period end: 03 October 2017 00:00
Orbit: 764 x 766 km, 98.2° (Epoch: 22 September)

Date Brightness Start Highest point End Pass type
(mag) Time Alt. Az. Time Alt. Az. Time Alt. Az.
23 Sep 4.2 19:54:45 14° ESE 19:57:35 22° ENE 20:01:24 10° NNE visible
23 Sep 4.0 21:34:58 35° SW 21:36:18 42° W 21:41:07 10° NNW visible
24 Sep 2.8 20:57:59 46° SSE 20:59:32 85° ENE 21:04:39 10° NNW visible
25 Sep 3.5 20:21:01 27° ESE 20:22:59 37° ENE 20:27:38 10° N visible
25 Sep 4.9 22:01:14 22° WSW 22:02:03 23° W 22:06:05 10° NW visible
26 Sep 4.5 19:44:02 12° E 19:46:37 17° ENE 19:49:53 10° NNE visible
26 Sep 3.6 21:24:15 47° SW 21:25:10 54° W 21:30:09 10° NNW visible
27 Sep 2.9 20:47:16 49° SE 20:48:27 67° ENE 20:53:30 10° N visible
27 Sep 5.7 22:27:29 13° W 22:27:55 13° W 22:30:08 10° WNW visible
28 Sep 3.8 20:10:18 24° E 20:11:57 30° ENE 20:16:19 10° N visible
28 Sep 4.6 21:50:31 29° WSW 21:50:53 30° W 21:55:19 10° NW visible
29 Sep 4.7 19:33:19 10° E 19:35:39 14° ENE 19:38:10 10° NNE visible
29 Sep 3.2 21:13:32 64° SW 21:14:03 69° W 21:19:07 10° NNW visible
30 Sep 3.1 20:36:34 47° ESE 20:37:24 52° ENE 20:42:19 10° N visible
30 Sep 5.4 22:16:47 17° W 22:16:47 17° W 22:19:54 10° NW visible
01 Oct 4.1 19:59:36 21° E 20:00:57 24° ENE 20:04:56 10° NNE visible
01 Oct 4.2 21:39:49 38° W 21:39:49 38° W 21:44:27 10° NNW visible
02 Oct 4.9 19:23:29 10° ENE 19:24:43 11° ENE 19:25:56 10° NE visible
02 Oct 2.9 21:02:50 86° SSW 21:02:57 88° WSW 21:08:03 10° NNW visible
